Year,Month,Day,Hour,Minute,Value (Times are PST for temperature in C)
2014,07,12,00,00,21.70
2014,07,12,00,01,21.80
2014,07,12,00,02,21.80
2014,07,12,00,03,21.80
2014,07,12,00,04,21.80
2014,07,12,00,05,21.90
2014,07,12,00,06,21.90
2014,07,12,00,07,21.90
2014,07,12,00,08,21.90
2014,07,12,00,09,21.90
2014,07,12,00,10,21.90
2014,07,12,00,11,21.90
2014,07,12,00,12,21.90
2014,07,12,00,13,21.90
2014,07,12,00,14,21.90
2014,07,12,00,15,21.80
2014,07,12,00,16,21.80
2014,07,12,00,17,21.80
2014,07,12,00,18,21.80
2014,07,12,00,19,21.80
2014,07,12,00,20,21.80
2014,07,12,00,21,21.80
2014,07,12,00,22,21.80
2014,07,12,00,23,21.80
2014,07,12,00,24,21.70
2014,07,12,00,25,21.70
2014,07,12,00,26,21.70
2014,07,12,00,27,21.70
2014,07,12,00,28,21.70
2014,07,12,00,29,21.70
2014,07,12,00,30,21.70
2014,07,12,00,31,21.70
2014,07,12,00,32,21.70
2014,07,12,00,33,21.70
2014,07,12,00,34,21.70
2014,07,12,00,35,21.60
2014,07,12,00,36,21.60
2014,07,12,00,37,21.60
2014,07,12,00,38,21.60
2014,07,12,00,39,21.60
2014,07,12,00,40,21.60
2014,07,12,00,41,21.60
2014,07,12,00,42,21.50
2014,07,12,00,43,21.50
2014,07,12,00,44,21.50
2014,07,12,00,45,21.50
2014,07,12,00,46,21.40
2014,07,12,00,47,21.40
2014,07,12,00,48,21.40
2014,07,12,00,49,21.40
2014,07,12,00,50,21.40
2014,07,12,00,51,21.40
2014,07,12,00,52,21.30
2014,07,12,00,53,21.30
2014,07,12,00,54,21.30
2014,07,12,00,55,21.30
2014,07,12,00,56,21.30
2014,07,12,00,57,21.20
2014,07,12,00,58,21.20
2014,07,12,00,59,21.10
2014,07,12,01,00,21.10
2014,07,12,01,01,21.10
2014,07,12,01,02,21.10
2014,07,12,01,03,21.10
2014,07,12,01,04,21.10
2014,07,12,01,05,21.10
2014,07,12,01,06,21.10
2014,07,12,01,07,21.10
2014,07,12,01,08,21.10
2014,07,12,01,09,21.10
2014,07,12,01,10,21.00
2014,07,12,01,11,21.00
2014,07,12,01,12,20.90
2014,07,12,01,13,20.90
2014,07,12,01,14,20.90
2014,07,12,01,15,20.90
2014,07,12,01,16,20.90
2014,07,12,01,17,20.90
2014,07,12,01,18,21.00
2014,07,12,01,19,21.00
2014,07,12,01,20,21.10
2014,07,12,01,21,21.10
2014,07,12,01,22,21.10
2014,07,12,01,23,21.10
2014,07,12,01,24,21.20
2014,07,12,01,25,21.20
2014,07,12,01,26,21.20
2014,07,12,01,27,21.20
2014,07,12,01,28,21.30
2014,07,12,01,29,21.30
2014,07,12,01,30,21.30
2014,07,12,01,31,21.30
2014,07,12,01,32,21.40
2014,07,12,01,33,21.40
2014,07,12,01,34,21.40
2014,07,12,01,35,21.40
2014,07,12,01,36,21.30
2014,07,12,01,37,21.30
2014,07,12,01,38,21.30
2014,07,12,01,39,21.20
2014,07,12,01,40,21.20
2014,07,12,01,41,21.20
2014,07,12,01,42,21.10
2014,07,12,01,43,21.10
2014,07,12,01,44,21.10
2014,07,12,01,45,21.00
2014,07,12,01,46,20.90
2014,07,12,01,47,20.80
2014,07,12,01,48,20.70
2014,07,12,01,49,20.70
2014,07,12,01,50,20.70
2014,07,12,01,51,20.60
2014,07,12,01,52,20.60
2014,07,12,01,53,20.50
2014,07,12,01,54,20.50
2014,07,12,01,55,20.40
2014,07,12,01,56,20.40
2014,07,12,01,57,20.30
2014,07,12,01,58,20.30
2014,07,12,01,59,20.30
2014,07,12,02,00,20.30
2014,07,12,02,01,20.30
2014,07,12,02,02,20.30
2014,07,12,02,03,20.20
2014,07,12,02,04,20.20
2014,07,12,02,05,20.20
2014,07,12,02,06,20.10
2014,07,12,02,07,20.10
2014,07,12,02,08,20.00
2014,07,12,02,09,20.00
2014,07,12,02,10,19.90
2014,07,12,02,11,19.90
2014,07,12,02,12,19.80
2014,07,12,02,13,19.80
2014,07,12,02,14,19.80
2014,07,12,02,15,19.80
2014,07,12,02,16,19.80
2014,07,12,02,17,19.80
2014,07,12,02,18,19.80
2014,07,12,02,19,19.80
2014,07,12,02,20,19.80
2014,07,12,02,21,19.90
2014,07,12,02,22,19.90
2014,07,12,02,23,19.90
2014,07,12,02,24,19.90
2014,07,12,02,25,19.90
2014,07,12,02,26,19.90
2014,07,12,02,27,19.90
2014,07,12,02,28,19.80
2014,07,12,02,29,19.80
2014,07,12,02,30,19.80
2014,07,12,02,31,19.70
2014,07,12,02,32,19.70
2014,07,12,02,33,19.70
2014,07,12,02,34,19.70
2014,07,12,02,35,19.70
2014,07,12,02,36,19.70
2014,07,12,02,37,19.60
2014,07,12,02,38,19.60
2014,07,12,02,39,19.60
2014,07,12,02,40,19.60
2014,07,12,02,41,19.60
2014,07,12,02,42,19.60
2014,07,12,02,43,19.60
2014,07,12,02,44,19.60
2014,07,12,02,45,19.50
2014,07,12,02,46,19.50
2014,07,12,02,47,19.40
2014,07,12,02,48,19.40
2014,07,12,02,49,19.40
2014,07,12,02,50,19.40
2014,07,12,02,51,19.30
2014,07,12,02,52,19.30
2014,07,12,02,53,19.30
2014,07,12,02,54,19.30
2014,07,12,02,55,19.20
2014,07,12,02,56,19.20
2014,07,12,02,57,19.20
2014,07,12,02,58,19.20
2014,07,12,02,59,19.20
2014,07,12,03,00,19.20
2014,07,12,03,01,19.10
2014,07,12,03,02,19.10
2014,07,12,03,03,19.10
2014,07,12,03,04,19.10
2014,07,12,03,05,19.10
2014,07,12,03,06,19.10
2014,07,12,03,07,19.00
2014,07,12,03,08,19.00
2014,07,12,03,09,19.00
2014,07,12,03,10,18.90
2014,07,12,03,11,18.90
2014,07,12,03,12,18.90
2014,07,12,03,13,18.90
2014,07,12,03,14,18.80
2014,07,12,03,15,18.80
2014,07,12,03,16,18.80
2014,07,12,03,17,18.70
2014,07,12,03,18,18.70
2014,07,12,03,19,18.70
2014,07,12,03,20,18.60
2014,07,12,03,21,18.60
2014,07,12,03,22,18.50
2014,07,12,03,23,18.50
2014,07,12,03,24,18.40
2014,07,12,03,25,18.30
2014,07,12,03,26,18.30
2014,07,12,03,27,18.30
2014,07,12,03,28,18.20
2014,07,12,03,29,18.20
2014,07,12,03,30,18.10
2014,07,12,03,31,18.10
2014,07,12,03,32,18.10
2014,07,12,03,33,18.10
2014,07,12,03,34,18.00
2014,07,12,03,35,18.00
2014,07,12,03,36,17.90
2014,07,12,03,37,17.90
2014,07,12,03,38,17.90
2014,07,12,03,39,17.90
2014,07,12,03,40,17.90
2014,07,12,03,41,17.80
2014,07,12,03,42,17.80
2014,07,12,03,43,17.80
2014,07,12,03,44,17.80
2014,07,12,03,45,17.80
2014,07,12,03,46,17.70
2014,07,12,03,47,17.70
2014,07,12,03,48,17.70
2014,07,12,03,49,17.70
2014,07,12,03,50,17.70
2014,07,12,03,51,17.70
2014,07,12,03,52,17.70
2014,07,12,03,53,17.60
2014,07,12,03,54,17.60
2014,07,12,03,55,17.60
2014,07,12,03,56,17.50
2014,07,12,03,57,17.50
2014,07,12,03,58,17.50
2014,07,12,03,59,17.50
2014,07,12,04,00,17.50
2014,07,12,04,01,17.50
2014,07,12,04,02,17.50
2014,07,12,04,03,17.50
2014,07,12,04,04,17.40
2014,07,12,04,05,17.40
2014,07,12,04,06,17.40
2014,07,12,04,07,17.40
2014,07,12,04,08,17.40
2014,07,12,04,09,17.40
2014,07,12,04,10,17.40
2014,07,12,04,11,17.40
2014,07,12,04,12,17.40
2014,07,12,04,13,17.40
2014,07,12,04,14,17.40
2014,07,12,04,15,17.40
2014,07,12,04,16,17.40
2014,07,12,04,17,17.40
2014,07,12,04,18,17.40
2014,07,12,04,19,17.40
2014,07,12,04,20,17.40
2014,07,12,04,21,17.40
2014,07,12,04,22,17.40
2014,07,12,04,23,17.40
2014,07,12,04,24,17.30
2014,07,12,04,25,17.30
2014,07,12,04,26,17.30
2014,07,12,04,27,17.20
2014,07,12,04,28,17.10
2014,07,12,04,29,17.10
2014,07,12,04,30,17.10
2014,07,12,04,31,17.00
2014,07,12,04,32,17.00
2014,07,12,04,33,16.90
2014,07,12,04,34,16.90
2014,07,12,04,35,16.80
2014,07,12,04,36,16.80
2014,07,12,04,37,16.70
2014,07,12,04,38,16.70
2014,07,12,04,39,16.60
2014,07,12,04,40,16.60
2014,07,12,04,41,16.60
2014,07,12,04,42,16.50
2014,07,12,04,43,16.50
2014,07,12,04,44,16.50
2014,07,12,04,45,16.50
2014,07,12,04,46,16.50
2014,07,12,04,47,16.40
2014,07,12,04,48,16.40
2014,07,12,04,49,16.40
2014,07,12,04,50,16.40
2014,07,12,04,51,16.40
2014,07,12,04,52,16.40
2014,07,12,04,53,16.30
2014,07,12,04,54,16.30
2014,07,12,04,55,16.30
2014,07,12,04,56,16.20
2014,07,12,04,57,16.20
2014,07,12,04,58,16.20
2014,07,12,04,59,16.20
2014,07,12,05,00,16.20
2014,07,12,05,01,16.20
2014,07,12,05,02,16.20
2014,07,12,05,03,16.10
2014,07,12,05,04,16.10
2014,07,12,05,05,16.10
2014,07,12,05,06,16.10
2014,07,12,05,07,16.10
2014,07,12,05,08,16.00
2014,07,12,05,09,16.00
2014,07,12,05,10,16.00
2014,07,12,05,11,16.00
2014,07,12,05,12,15.90
2014,07,12,05,13,15.90
2014,07,12,05,14,15.90
2014,07,12,05,15,15.90
2014,07,12,05,16,15.90
2014,07,12,05,17,15.90
2014,07,12,05,18,15.80
2014,07,12,05,19,15.80
2014,07,12,05,20,15.80
2014,07,12,05,21,15.80
2014,07,12,05,22,15.80
2014,07,12,05,23,15.80
2014,07,12,05,24,15.80
2014,07,12,05,25,15.80
2014,07,12,05,26,15.80
2014,07,12,05,27,15.80
2014,07,12,05,28,15.80
2014,07,12,05,29,15.80
2014,07,12,05,30,15.80
2014,07,12,05,31,15.80
2014,07,12,05,32,15.80
2014,07,12,05,33,15.80
2014,07,12,05,34,15.80
2014,07,12,05,35,15.80
2014,07,12,05,36,15.80
2014,07,12,05,37,15.80
2014,07,12,05,38,15.80
2014,07,12,05,39,15.80
2014,07,12,05,40,15.80
2014,07,12,05,41,15.80
2014,07,12,05,42,15.80
2014,07,12,05,43,15.70
2014,07,12,05,44,15.70
2014,07,12,05,45,15.80
2014,07,12,05,46,15.80
2014,07,12,05,47,15.80
2014,07,12,05,48,15.90
2014,07,12,05,49,15.90
2014,07,12,05,50,15.90
2014,07,12,05,51,15.90
2014,07,12,05,52,15.90
2014,07,12,05,53,15.90
2014,07,12,05,54,15.90
2014,07,12,05,55,15.90
2014,07,12,05,56,15.90
2014,07,12,05,57,15.90
2014,07,12,05,58,15.90
2014,07,12,05,59,15.90
2014,07,12,06,00,15.90
2014,07,12,06,01,15.90
2014,07,12,06,02,15.90
2014,07,12,06,03,15.90
2014,07,12,06,04,15.90
2014,07,12,06,05,16.00
2014,07,12,06,06,16.00
2014,07,12,06,07,16.00
2014,07,12,06,08,16.00
2014,07,12,06,09,16.10
2014,07,12,06,10,16.10
2014,07,12,06,11,16.10
2014,07,12,06,12,16.10
2014,07,12,06,13,16.10
2014,07,12,06,14,16.10
2014,07,12,06,15,16.10
2014,07,12,06,16,16.10
2014,07,12,06,17,16.10
2014,07,12,06,18,16.10
2014,07,12,06,19,16.10
2014,07,12,06,20,16.10
2014,07,12,06,21,16.10
2014,07,12,06,22,16.10
2014,07,12,06,23,16.10
2014,07,12,06,24,16.10
2014,07,12,06,25,16.10
2014,07,12,06,26,16.10
2014,07,12,06,27,16.10
2014,07,12,06,28,16.10
2014,07,12,06,29,16.10
2014,07,12,06,30,16.10
2014,07,12,06,31,16.10
2014,07,12,06,32,16.20
2014,07,12,06,33,16.20
2014,07,12,06,34,16.20
2014,07,12,06,35,16.20
2014,07,12,06,36,16.20
2014,07,12,06,37,16.20
2014,07,12,06,38,16.20
2014,07,12,06,39,16.30
2014,07,12,06,40,16.30
2014,07,12,06,41,16.40
2014,07,12,06,42,16.40
2014,07,12,06,43,16.40
2014,07,12,06,44,16.50
2014,07,12,06,45,16.50
2014,07,12,06,46,16.50
2014,07,12,06,47,16.50
2014,07,12,06,48,16.50
2014,07,12,06,49,16.50
2014,07,12,06,50,16.50
2014,07,12,06,51,16.50
2014,07,12,06,52,16.50
2014,07,12,06,53,16.50
2014,07,12,06,54,16.50
2014,07,12,06,55,16.60
2014,07,12,06,56,16.60
2014,07,12,06,57,16.60
2014,07,12,06,58,16.60
2014,07,12,06,59,16.60
2014,07,12,07,00,16.60
2014,07,12,07,01,16.60
2014,07,12,07,02,16.70
2014,07,12,07,03,16.70
2014,07,12,07,04,16.70
2014,07,12,07,05,16.70
2014,07,12,07,06,16.70
2014,07,12,07,07,16.70
2014,07,12,07,08,16.70
2014,07,12,07,09,16.70
2014,07,12,07,10,16.70
2014,07,12,07,11,16.70
2014,07,12,07,12,16.70
2014,07,12,07,13,16.70
2014,07,12,07,14,16.70
2014,07,12,07,15,16.80
2014,07,12,07,16,16.80
2014,07,12,07,17,16.80
2014,07,12,07,18,16.80
2014,07,12,07,19,16.80
2014,07,12,07,20,16.80
2014,07,12,07,21,16.80
2014,07,12,07,22,16.80
2014,07,12,07,23,16.90
2014,07,12,07,24,16.90
2014,07,12,07,25,16.90
2014,07,12,07,26,16.90
2014,07,12,07,27,16.90
2014,07,12,07,28,16.90
2014,07,12,07,29,17.00
2014,07,12,07,30,17.00
2014,07,12,07,31,17.10
2014,07,12,07,32,17.10
2014,07,12,07,33,17.10
2014,07,12,07,34,17.10
2014,07,12,07,35,17.10
2014,07,12,07,36,17.20
2014,07,12,07,37,17.20
2014,07,12,07,38,17.20
2014,07,12,07,39,17.20
2014,07,12,07,40,17.20
2014,07,12,07,41,17.30
2014,07,12,07,42,17.30
2014,07,12,07,43,17.30
2014,07,12,07,44,17.40
2014,07,12,07,45,17.40
2014,07,12,07,46,17.50
2014,07,12,07,47,17.50
2014,07,12,07,48,17.60
2014,07,12,07,49,17.70
2014,07,12,07,50,17.80
2014,07,12,07,51,17.80
2014,07,12,07,52,17.90
2014,07,12,07,53,18.00
2014,07,12,07,54,18.10
2014,07,12,07,55,18.10
2014,07,12,07,56,18.20
2014,07,12,07,57,18.30
2014,07,12,07,58,18.30
2014,07,12,07,59,18.40
2014,07,12,08,00,18.40
2014,07,12,08,01,18.50
2014,07,12,08,02,18.60
2014,07,12,08,03,18.60
2014,07,12,08,04,18.70
2014,07,12,08,05,18.70
2014,07,12,08,06,18.80
2014,07,12,08,07,18.80
2014,07,12,08,08,18.80
2014,07,12,08,09,18.90
2014,07,12,08,10,18.90
2014,07,12,08,11,19.00
2014,07,12,08,12,19.00
2014,07,12,08,13,19.10
2014,07,12,08,14,19.10
2014,07,12,08,15,19.10
2014,07,12,08,16,19.10
2014,07,12,08,17,19.10
2014,07,12,08,18,19.10
2014,07,12,08,19,19.20
2014,07,12,08,20,19.20
2014,07,12,08,21,19.20
2014,07,12,08,22,19.30
2014,07,12,08,23,19.30
2014,07,12,08,24,19.30
2014,07,12,08,25,19.30
2014,07,12,08,26,19.40
2014,07,12,08,27,19.40
2014,07,12,08,28,19.40
2014,07,12,08,29,19.40
2014,07,12,08,30,19.50
2014,07,12,08,31,19.50
2014,07,12,08,32,19.50
2014,07,12,08,33,19.60
2014,07,12,08,34,19.60
2014,07,12,08,35,19.60
2014,07,12,08,36,19.70
2014,07,12,08,37,19.70
2014,07,12,08,38,19.70
2014,07,12,08,39,19.80
2014,07,12,08,40,19.90
2014,07,12,08,41,19.90
2014,07,12,08,42,20.00
2014,07,12,08,43,20.10
2014,07,12,08,44,20.20
2014,07,12,08,45,20.20
2014,07,12,08,46,20.30
2014,07,12,08,47,20.40
2014,07,12,08,48,20.40
2014,07,12,08,49,20.50
2014,07,12,08,50,20.60
2014,07,12,08,51,20.60
2014,07,12,08,52,20.70
2014,07,12,08,53,20.70
2014,07,12,08,54,20.70
2014,07,12,08,55,20.80
2014,07,12,08,56,20.80
2014,07,12,08,57,20.90
2014,07,12,08,58,20.90
2014,07,12,08,59,20.90
2014,07,12,09,00,20.90
2014,07,12,09,01,20.90
2014,07,12,09,02,21.00
2014,07,12,09,03,21.00
2014,07,12,09,04,21.10
2014,07,12,09,05,21.10
2014,07,12,09,06,21.20
2014,07,12,09,07,21.20
2014,07,12,09,08,21.30
2014,07,12,09,09,21.30
2014,07,12,09,10,21.40
2014,07,12,09,11,21.40
2014,07,12,09,12,21.40
2014,07,12,09,13,21.40
2014,07,12,09,14,21.40
2014,07,12,09,15,21.40
2014,07,12,09,16,21.40
2014,07,12,09,17,21.40
2014,07,12,09,18,21.30
2014,07,12,09,19,21.40
2014,07,12,09,20,21.40
2014,07,12,09,21,21.40
2014,07,12,09,22,21.50
2014,07,12,09,23,21.50
2014,07,12,09,24,21.60
2014,07,12,09,25,21.60
2014,07,12,09,26,21.70
2014,07,12,09,27,21.80
2014,07,12,09,28,21.80
2014,07,12,09,29,21.90
2014,07,12,09,30,22.00
2014,07,12,09,31,22.00
2014,07,12,09,32,22.10
2014,07,12,09,33,22.20
2014,07,12,09,34,22.20
2014,07,12,09,35,22.20
2014,07,12,09,36,22.30
2014,07,12,09,37,22.40
2014,07,12,09,38,22.40
2014,07,12,09,39,22.40
2014,07,12,09,40,22.40
2014,07,12,09,41,22.40
2014,07,12,09,42,22.50
2014,07,12,09,43,22.50
2014,07,12,09,44,22.50
2014,07,12,09,45,22.60
2014,07,12,09,46,22.60
2014,07,12,09,47,22.60
2014,07,12,09,48,22.60
2014,07,12,09,49,22.60
2014,07,12,09,50,22.70
2014,07,12,09,51,22.70
2014,07,12,09,52,22.70
2014,07,12,09,53,22.70
2014,07,12,09,54,22.70
2014,07,12,09,55,22.70
2014,07,12,09,56,22.70
2014,07,12,09,57,22.70
2014,07,12,09,58,22.70
2014,07,12,09,59,22.70
2014,07,12,10,00,22.70
2014,07,12,10,01,22.70
2014,07,12,10,02,22.70
2014,07,12,10,03,22.70
2014,07,12,10,04,22.70
2014,07,12,10,05,22.80
2014,07,12,10,06,22.80
2014,07,12,10,07,22.80
2014,07,12,10,08,22.80
2014,07,12,10,09,22.80
2014,07,12,10,10,22.90
2014,07,12,10,11,23.00
2014,07,12,10,12,23.00
2014,07,12,10,13,23.10
2014,07,12,10,14,23.10
2014,07,12,10,15,23.10
2014,07,12,10,16,23.20
2014,07,12,10,17,23.20
2014,07,12,10,18,23.20
2014,07,12,10,19,23.30
2014,07,12,10,20,23.40
2014,07,12,10,21,23.50
2014,07,12,10,22,23.60
2014,07,12,10,23,23.80
2014,07,12,10,24,23.90
2014,07,12,10,25,24.00
2014,07,12,10,26,24.00
2014,07,12,10,27,24.10
2014,07,12,10,28,24.10
2014,07,12,10,29,24.10
2014,07,12,10,30,24.10
2014,07,12,10,31,24.10
2014,07,12,10,32,24.10
2014,07,12,10,33,24.10
2014,07,12,10,34,24.10
2014,07,12,10,35,24.00
2014,07,12,10,36,24.00
2014,07,12,10,37,23.90
2014,07,12,10,38,23.90
2014,07,12,10,39,23.80
2014,07,12,10,40,23.80
2014,07,12,10,41,23.70
2014,07,12,10,42,23.70
2014,07,12,10,43,23.70
2014,07,12,10,44,23.70
2014,07,12,10,45,23.70
2014,07,12,10,46,23.70
2014,07,12,10,47,23.70
2014,07,12,10,48,23.70
2014,07,12,10,49,23.70
2014,07,12,10,50,23.80
2014,07,12,10,51,23.80
2014,07,12,10,52,23.80
2014,07,12,10,53,23.80
2014,07,12,10,54,23.80
2014,07,12,10,55,23.90
2014,07,12,10,56,23.90
2014,07,12,10,57,24.00
2014,07,12,10,58,24.00
2014,07,12,10,59,24.10
2014,07,12,11,00,24.20
2014,07,12,11,01,24.20
2014,07,12,11,02,24.10
2014,07,12,11,03,24.10
2014,07,12,11,04,24.10
2014,07,12,11,05,24.00
2014,07,12,11,06,24.00
2014,07,12,11,07,24.00
2014,07,12,11,08,23.90
2014,07,12,11,09,23.90
2014,07,12,11,10,23.90
2014,07,12,11,11,23.90
2014,07,12,11,12,23.90
2014,07,12,11,13,23.90
2014,07,12,11,14,23.90
2014,07,12,11,15,24.00
2014,07,12,11,16,24.00
2014,07,12,11,17,24.10
2014,07,12,11,18,24.20
2014,07,12,11,19,24.30
2014,07,12,11,20,24.30
2014,07,12,11,21,24.40
2014,07,12,11,22,24.50
2014,07,12,11,23,24.50
2014,07,12,11,24,24.60
2014,07,12,11,25,24.60
2014,07,12,11,26,24.60
2014,07,12,11,27,24.70
2014,07,12,11,28,24.70
2014,07,12,11,29,24.70
2014,07,12,11,30,24.80
2014,07,12,11,31,24.80
2014,07,12,11,32,24.90
2014,07,12,11,33,24.90
2014,07,12,11,34,24.90
2014,07,12,11,35,24.80
2014,07,12,11,36,24.80
2014,07,12,11,37,24.70
2014,07,12,11,38,24.70
2014,07,12,11,39,24.70
2014,07,12,11,40,24.70
2014,07,12,11,41,24.70
2014,07,12,11,42,24.70
2014,07,12,11,43,24.70
2014,07,12,11,44,24.60
2014,07,12,11,45,24.60
2014,07,12,11,46,24.60
2014,07,12,11,47,24.50
2014,07,12,11,48,24.50
2014,07,12,11,49,24.40
2014,07,12,11,50,24.40
2014,07,12,11,51,24.40
2014,07,12,11,52,24.40
2014,07,12,11,53,24.40
2014,07,12,11,54,24.40
2014,07,12,11,55,24.50
2014,07,12,11,56,24.60
2014,07,12,11,57,24.60
2014,07,12,11,58,24.70
2014,07,12,11,59,24.70
2014,07,12,12,00,24.80
2014,07,12,12,01,24.80
2014,07,12,12,02,24.90
2014,07,12,12,03,24.90
2014,07,12,12,04,25.00
2014,07,12,12,05,25.10
2014,07,12,12,06,25.20
2014,07,12,12,07,25.30
2014,07,12,12,08,25.30
2014,07,12,12,09,25.40
2014,07,12,12,10,25.50
2014,07,12,12,11,25.60
2014,07,12,12,12,25.60
2014,07,12,12,13,25.60
2014,07,12,12,14,25.60
2014,07,12,12,15,25.60
2014,07,12,12,16,25.50
2014,07,12,12,17,25.50
2014,07,12,12,18,25.50
2014,07,12,12,19,25.50
2014,07,12,12,20,25.50
2014,07,12,12,21,25.50
2014,07,12,12,22,25.50
2014,07,12,12,23,25.40
2014,07,12,12,24,25.50
2014,07,12,12,25,25.50
2014,07,12,12,26,25.60
2014,07,12,12,27,25.60
2014,07,12,12,28,25.60
2014,07,12,12,29,25.60
2014,07,12,12,30,25.60
2014,07,12,12,31,25.70
2014,07,12,12,32,25.80
2014,07,12,12,33,25.90
2014,07,12,12,34,26.00
2014,07,12,12,35,26.10
2014,07,12,12,36,26.20
2014,07,12,12,37,26.20
2014,07,12,12,38,26.20
2014,07,12,12,39,26.10
2014,07,12,12,40,26.10
2014,07,12,12,41,26.10
2014,07,12,12,42,26.10
2014,07,12,12,43,26.10
2014,07,12,12,44,26.10
2014,07,12,12,45,26.20
2014,07,12,12,46,26.20
2014,07,12,12,47,26.30
2014,07,12,12,48,26.30
2014,07,12,12,49,26.40
2014,07,12,12,50,26.40
2014,07,12,12,51,26.40
2014,07,12,12,52,26.50
2014,07,12,12,53,26.50
2014,07,12,12,54,26.50
2014,07,12,12,55,26.60
2014,07,12,12,56,26.80
2014,07,12,12,57,26.80
2014,07,12,12,58,26.90
2014,07,12,12,59,26.90
2014,07,12,13,00,27.00
2014,07,12,13,01,27.00
2014,07,12,13,02,27.00
2014,07,12,13,03,26.90
2014,07,12,13,04,26.90
2014,07,12,13,05,27.00
2014,07,12,13,06,27.00
2014,07,12,13,07,27.00
2014,07,12,13,08,27.10
2014,07,12,13,09,27.10
2014,07,12,13,10,27.20
2014,07,12,13,11,27.30
2014,07,12,13,12,27.40
2014,07,12,13,13,27.40
2014,07,12,13,14,27.50
2014,07,12,13,15,27.50
2014,07,12,13,16,27.50
2014,07,12,13,17,27.60
2014,07,12,13,18,27.60
2014,07,12,13,19,27.60
2014,07,12,13,20,27.60
2014,07,12,13,21,27.60
2014,07,12,13,22,27.60
2014,07,12,13,23,27.70
2014,07,12,13,24,27.70
2014,07,12,13,25,27.70
2014,07,12,13,26,27.60
2014,07,12,13,27,27.50
2014,07,12,13,28,27.40
2014,07,12,13,29,27.30
2014,07,12,13,30,27.20
2014,07,12,13,31,27.20
2014,07,12,13,32,27.20
2014,07,12,13,33,27.20
2014,07,12,13,34,27.20
2014,07,12,13,35,27.30
2014,07,12,13,36,27.30
2014,07,12,13,37,27.30
2014,07,12,13,38,27.20
2014,07,12,13,39,27.10
2014,07,12,13,40,27.00
2014,07,12,13,41,27.00
2014,07,12,13,42,26.90
2014,07,12,13,43,26.80
2014,07,12,13,44,26.70
2014,07,12,13,45,26.60
2014,07,12,13,46,26.60
2014,07,12,13,47,26.60
2014,07,12,13,48,26.60
2014,07,12,13,49,26.60
2014,07,12,13,50,26.50
2014,07,12,13,51,26.50
2014,07,12,13,52,26.50
2014,07,12,13,53,26.50
2014,07,12,13,54,26.60
2014,07,12,13,55,26.60
2014,07,12,13,56,26.60
2014,07,12,13,57,26.60
2014,07,12,13,58,26.70
2014,07,12,13,59,26.70
2014,07,12,14,00,26.70
2014,07,12,14,01,26.70
2014,07,12,14,02,26.70
2014,07,12,14,03,26.80
2014,07,12,14,04,26.90
2014,07,12,14,05,27.00
2014,07,12,14,06,27.10
2014,07,12,14,07,27.00
2014,07,12,14,08,26.90
2014,07,12,14,09,26.80
2014,07,12,14,10,26.80
2014,07,12,14,11,26.80
2014,07,12,14,12,26.70
2014,07,12,14,13,26.70
2014,07,12,14,14,26.70
2014,07,12,14,15,26.80
2014,07,12,14,16,26.90
2014,07,12,14,17,27.10
2014,07,12,14,18,27.10
2014,07,12,14,19,27.20
2014,07,12,14,20,27.30
2014,07,12,14,21,27.40
2014,07,12,14,22,27.50
2014,07,12,14,23,27.60
2014,07,12,14,24,27.60
2014,07,12,14,25,27.60
2014,07,12,14,26,27.50
2014,07,12,14,27,27.40
2014,07,12,14,28,27.30
2014,07,12,14,29,27.30
2014,07,12,14,30,27.30
2014,07,12,14,31,27.40
2014,07,12,14,32,27.40
2014,07,12,14,33,27.50
2014,07,12,14,34,27.60
2014,07,12,14,35,27.60
2014,07,12,14,36,27.70
2014,07,12,14,37,27.70
2014,07,12,14,38,27.80
2014,07,12,14,39,27.90
2014,07,12,14,40,27.90
2014,07,12,14,41,28.00
2014,07,12,14,42,28.10
2014,07,12,14,43,28.20
2014,07,12,14,44,28.30
2014,07,12,14,45,28.40
2014,07,12,14,46,28.50
2014,07,12,14,47,28.50
2014,07,12,14,48,28.60
2014,07,12,14,49,28.70
2014,07,12,14,50,28.70
2014,07,12,14,51,28.70
2014,07,12,14,52,28.70
2014,07,12,14,53,28.70
2014,07,12,14,54,28.70
2014,07,12,14,55,28.80
2014,07,12,14,56,28.80
2014,07,12,14,57,28.80
2014,07,12,14,58,28.80
2014,07,12,14,59,28.80
2014,07,12,15,00,28.70
2014,07,12,15,01,28.80
2014,07,12,15,02,28.80
2014,07,12,15,03,28.90
2014,07,12,15,04,29.00
2014,07,12,15,05,29.00
2014,07,12,15,06,29.10
2014,07,12,15,07,29.10
2014,07,12,15,08,29.00
2014,07,12,15,09,28.80
2014,07,12,15,10,28.60
2014,07,12,15,11,28.50
2014,07,12,15,12,28.30
2014,07,12,15,13,28.20
2014,07,12,15,14,28.10
2014,07,12,15,15,27.90
2014,07,12,15,16,27.90
2014,07,12,15,17,27.80
2014,07,12,15,18,27.80
2014,07,12,15,19,27.80
2014,07,12,15,20,27.80
2014,07,12,15,21,27.90
2014,07,12,15,22,28.00
2014,07,12,15,23,28.10
2014,07,12,15,24,28.10
2014,07,12,15,25,28.10
2014,07,12,15,26,28.20
2014,07,12,15,27,28.20
2014,07,12,15,28,28.20
2014,07,12,15,29,28.10
2014,07,12,15,30,28.10
2014,07,12,15,31,28.10
2014,07,12,15,32,28.20
2014,07,12,15,33,28.30
2014,07,12,15,34,28.30
2014,07,12,15,35,28.40
2014,07,12,15,36,28.40
2014,07,12,15,37,28.40
2014,07,12,15,38,28.40
2014,07,12,15,39,28.40
2014,07,12,15,40,28.40
2014,07,12,15,41,28.30
2014,07,12,15,42,28.30
2014,07,12,15,43,28.20
2014,07,12,15,44,28.20
2014,07,12,15,45,28.20
2014,07,12,15,46,28.30
2014,07,12,15,47,28.30
2014,07,12,15,48,28.40
2014,07,12,15,49,28.50
2014,07,12,15,50,28.60
2014,07,12,15,51,28.70
2014,07,12,15,52,28.70
2014,07,12,15,53,28.70
2014,07,12,15,54,28.80
2014,07,12,15,55,28.80
2014,07,12,15,56,28.80
2014,07,12,15,57,28.80
2014,07,12,15,58,28.80
2014,07,12,15,59,28.80
2014,07,12,16,00,28.90
2014,07,12,16,01,28.90
2014,07,12,16,02,29.00
2014,07,12,16,03,29.10
2014,07,12,16,04,29.10
2014,07,12,16,05,29.20
2014,07,12,16,06,29.30
2014,07,12,16,07,29.30
2014,07,12,16,08,29.30
2014,07,12,16,09,29.30
2014,07,12,16,10,29.30
2014,07,12,16,11,29.30
2014,07,12,16,12,29.30
2014,07,12,16,13,29.30
2014,07,12,16,14,29.30
2014,07,12,16,15,29.20
2014,07,12,16,16,29.10
2014,07,12,16,17,29.00
2014,07,12,16,18,29.00
2014,07,12,16,19,28.90
2014,07,12,16,20,28.90
2014,07,12,16,21,28.90
2014,07,12,16,22,28.80
2014,07,12,16,23,28.80
2014,07,12,16,24,28.80
2014,07,12,16,25,28.80
2014,07,12,16,26,28.70
2014,07,12,16,27,28.70
2014,07,12,16,28,28.70
2014,07,12,16,29,28.60
2014,07,12,16,30,28.60
2014,07,12,16,31,28.60
2014,07,12,16,32,28.60
2014,07,12,16,33,28.60
2014,07,12,16,34,28.60
2014,07,12,16,35,28.70
2014,07,12,16,36,28.70
2014,07,12,16,37,28.70
2014,07,12,16,38,28.70
2014,07,12,16,39,28.70
2014,07,12,16,40,28.70
2014,07,12,16,41,28.70
2014,07,12,16,42,28.80
2014,07,12,16,43,28.90
2014,07,12,16,44,28.90
2014,07,12,16,45,29.00
2014,07,12,16,46,29.00
2014,07,12,16,47,29.10
2014,07,12,16,48,29.10
2014,07,12,16,49,29.20
2014,07,12,16,50,29.30
2014,07,12,16,51,29.30
2014,07,12,16,52,29.40
2014,07,12,16,53,29.40
2014,07,12,16,54,29.40
2014,07,12,16,55,29.40
2014,07,12,16,56,29.40
2014,07,12,16,57,29.50
2014,07,12,16,58,29.40
2014,07,12,16,59,29.30
2014,07,12,17,00,29.10
2014,07,12,17,01,29.00
2014,07,12,17,02,28.90
2014,07,12,17,03,28.80
2014,07,12,17,04,28.80
2014,07,12,17,05,28.70
2014,07,12,17,06,28.70
2014,07,12,17,07,28.70
2014,07,12,17,08,28.80
2014,07,12,17,09,28.80
2014,07,12,17,10,28.70
2014,07,12,17,11,28.60
2014,07,12,17,12,28.50
2014,07,12,17,13,28.40
2014,07,12,17,14,28.30
2014,07,12,17,15,28.40
2014,07,12,17,16,28.40
2014,07,12,17,17,28.50
2014,07,12,17,18,28.60
2014,07,12,17,19,28.70